Weather History for Kirksville, MO

Change the Weather History Date:

Tuesday, April 2, 2013

  Actual Average Record
Temperature  
Mean Temperature 33 °F 47 °F  
Max Temperature 49 °F 58 °F 86 °F (2012)
Min Temperature 17 °F 36 °F 17 °F (2013)
Degree Days  
Heating Degree Days 32 18  
Month to date heating degree days 62 36  
Since 1 July heating degree days 5424 5323  
Cooling Degree Days 0 0  
Month to date cooling degree days 0 0  
Year to date cooling degree days 0 0  
Moisture  
Dew Point 18 °F    
Average Humidity 57    
Maximum Humidity 84    
Minimum Humidity 29    
Precipitation  
Precipitation 0.00 in 0.07 in 1.20 in (1926)
Month to date precipitation T 0.13  
Year to date precipitation 8.79 5.48  
Sea Level Pressure  
Sea Level Pressure 30.35 in    
Wind  
Wind Speed 5 mph (NNE)    
Max Wind Speed 14 mph    
Max Gust Speed 18 mph    
Visibility 10 miles    
Events      
T = Trace of Precipitation, MM = Missing Value Source: NWS Daily Summary

Daily Weather History Graph

Daily Weather History Graph

Search for Another Location

Airport:

Trip Planner

Search our weather history database for the weather conditions in past years. The results will help you decide how hot, cold, wet, or windy it might be!

Date:

Astronomy

Apr. 02, 2013 Rise Set
Actual Time 6:52 AM CDT 7:35 PM CDT
Civil Twilight 6:24 AM CDT 8:03 PM CDT
Nautical Twilight 5:52 AM CDT 8:35 PM CDT
Astronomical Twilight 5:18 AM CDT 9:09 PM CDT
Moon 1:41 AM CDT (4/2) 11:43 AM CDT (4/2)
Length of Visible Light 13h 38m
Length of Day
12h 43m
Waning Gibbous, 55% of the Moon is Illuminated
Apr 2
Waning Gibbous
Apr 2
Last Quarter
Apr 10
New
Apr 18
First Quarter
Apr 25
Full

Hourly Weather History & Observations

Time (CDT) Temp. Windchill Dew Point Humidity Pressure Visibility Wind Dir Wind Speed Gust Speed Precip Events Conditions
12:55 AM 25.0 °F 18.1 °F 18.0 °F 75% 30.33 in 10.0 mi North 5.8 mph - N/A   Clear
1:55 AM 24.1 °F - 17.1 °F 75% 30.34 in 10.0 mi Calm Calm - N/A   Clear
2:55 AM 25.0 °F 19.3 °F 17.1 °F 72% 30.33 in 10.0 mi NNW 4.6 mph - N/A   Clear
3:55 AM 21.9 °F - 16.0 °F 78% 30.33 in 10.0 mi Calm Calm - N/A   Clear
4:55 AM 21.0 °F 16.2 °F 18.0 °F 88% 30.33 in 10.0 mi NNW 3.5 mph - N/A   Clear
5:55 AM 21.9 °F 17.2 °F 16.0 °F 78% 30.34 in 10.0 mi North 3.5 mph - N/A   Clear
6:55 AM 19.0 °F - 15.1 °F 85% 30.36 in 10.0 mi Calm Calm - N/A   Clear
7:55 AM 25.0 °F 20.7 °F 19.9 °F 81% 30.38 in 10.0 mi North 3.5 mph - N/A   Clear
8:55 AM 32.0 °F 27.5 °F 21.0 °F 64% 30.39 in 10.0 mi NE 4.6 mph - N/A   Clear
9:55 AM 34.0 °F 29.8 °F 19.0 °F 54% 30.40 in 10.0 mi ENE 4.6 mph - N/A   Clear
10:55 AM 36.0 °F - 16.0 °F 44% 30.40 in 10.0 mi Calm Calm - N/A   Clear
11:55 AM 39.0 °F - 12.9 °F 34% 30.38 in 10.0 mi Calm Calm - N/A   Clear
12:55 PM 43.0 °F 38.2 °F 15.1 °F 32% 30.36 in 10.0 mi North 8.1 mph 16.1 mph N/A   Clear
1:55 PM 46.0 °F 40.6 °F 18.0 °F 33% 30.34 in 10.0 mi NNW 11.5 mph - N/A   Clear
2:55 PM 45.0 °F 41.8 °F 16.0 °F 31% 30.33 in 10.0 mi Variable 5.8 mph - N/A   Clear
3:55 PM 46.9 °F - 17.1 °F 30% 30.32 in 10.0 mi NW 4.6 mph - N/A   Clear
4:55 PM 48.0 °F - 18.0 °F 30% 30.30 in 10.0 mi NNE 10.4 mph 18.4 mph N/A   Clear
5:55 PM 46.9 °F - 19.0 °F 33% 30.30 in 10.0 mi Variable 4.6 mph - N/A   Clear
6:55 PM 44.1 °F 42.5 °F 19.9 °F 38% 30.32 in 10.0 mi NE 3.5 mph - N/A   Clear
7:55 PM 41.0 °F 38.0 °F 19.0 °F 41% 30.32 in 10.0 mi NNE 4.6 mph - N/A   Clear
8:55 PM 37.9 °F 34.4 °F 19.0 °F 47% 30.33 in 10.0 mi NNE 4.6 mph - N/A   Clear
9:55 PM 32.0 °F 24.2 °F 21.9 °F 66% 30.36 in 10.0 mi NNE 9.2 mph - N/A   Clear
10:55 PM 32.0 °F 24.8 °F 23.0 °F 69% 30.37 in 10.0 mi NE 8.1 mph - N/A   Clear
11:55 PM 28.9 °F 21.1 °F 21.9 °F 75% 30.37 in 10.0 mi NE 8.1 mph - N/A   Clear